Location: Lecco
(45.8566°N, 9.3977°E)
Time: 03:35:21
(UTC+02:00)

Transit 4A - Pass Details

Date: 22 August 2020
Orbit: 863 x 982 km, 66.8° (Epoch: 23 September)

Event Time Altitude Azimuth Distance (km) Brightness Sun altitude
Rises 18:17:31 0° 314° (NW) 3,678 11.7 19.9°
Reaches altitude 10° 18:20:59 10° 295° (WNW) 2,734 11.6 19.3°
Maximum altitude 18:24:56 17° 257° (WSW) 2,244 12.4 18.7°
Drops below altitude 10° 18:28:53 10° 218° (SW) 2,727 11.0 18.0°
Sets 18:32:21 0° 200° (SSW) 3,662 11.3 17.4°
